SCP
0 0 0 0 0 0 0 1 1 2 3 2 1 1 1 1 1 1 1 1 1 1 1 1 1 1 1 0 0 0 0 0 0 0 0 0 0 0 0 0 0 0 0
0 0 0 0 0 0 0 0 1 2 2 2 1 1 1 0 0 0 1 1 1 1 1 1 1 1 1 0 0 0 0 0 0 0 0 0 0 0 0 0 0 0 0
0 0 0 0 0 0 0 0 1 1 1 2 1 1 1 1 1 0 0 1 1 1 1 1 1 0 0 0 0 0 0 0 0 0 0 0 0 0 0 0 0 0 0
0 0 0 0 0 0 0 0 1 1 1 1 1 1 0 0 0 1 0 1 1 0 1 0 0 0 0 0 0 0 0 0 0 0 -0 0 0 0 0 0 0 0 0
-0 -0 0 0 0 0 0 0 0 0 1 0 1 0 0 0 0 0 0 1 1 0 0 0 0 0 0 0 0 0 -0 -0 0 0 0 -0 0 0 -0 0 0 0 0
-0 0 0 0 0 0 0 0 0 0 0 0 0 0 0 0 0 0 0 1 0 0 0 0 0 0 0 -0 -0 0 -0 0 0 0 0 0 0 0 0 0 0 0 0
0 0 0 0 0 0 0 0 0 0 0 0 0 0 0 0 0 0 0 0 0 0 0 0 -0 -0 -0 -0 -0 -0 0 0 0 0 0 0 0 0 0 0 0 0 0
0 0 0 0 0 0 0 0 0 0 0 0 0 0 0 0 0 0 0 0 0 0 -0 -0 -0 -0 -0 -0 0 -0 -0 -0 0 0 0 0 0 0 0 0 0 0 0
0 0 -0 0 0 0 0 0 0 0 0 0 0 0 0 0 0 0 0 0 0 -0 -0 0 0 -0 -0 0 -0 0 -0 0 0 0 0 0 0 0 0 0 0 0 0
-0 -0 -0 0 0 0 0 0 0 0 0 -0 0 0 0 0 0 0 0 0 0 -0 0 0 -0 -0 -0 -0 0 -0 -0 0 0 0 0 0 0 0 0 0 0 0 0
-0 -0 0 0 0 0 -0 0 -0 -0 -0 0 0 0 0 0 0 -0 0 -0 -0 0 -0 0 -0 0 -0 -0 -0 -0 -0 -0 0 0 0 0 0 0 0 0 0 0 0
-0 -0 -0 -0 -0 -0 -0 -0 -0 -0 -0 0 0 0 0 -0 -0 -0 0 -0 -0 -0 0 0 0 -0 0 0 -0 -0 0 0 0 0 0 0 0 0 0 0 -0 0 0
-0 -0 -0 0 -0 -0 -0 -0 -0 -0 -0 -0 -0 -0 -0 -0 -0 -0 -0 -0 -0 -0 0 0 -0 -0 -0 -0 0 0 0 0 0 0 0 0 0 0 -0 0 0 0 0
-0 -0 -0 -0 -0 -0 -0 -0 -0 -0 -0 -0 -0 -0 -0 -0 -0 -0 0 0 -0 0 0 0 -0 -0 -0 0 0 0 0 0 0 0 -0 0 0 0 0 0 0 0 0
-0 -0 -0 -0 -0 -0 -0 -0 -0 -0 -0 -0 -0 -0 -0 -0 -0 -0 -0 0 0 0 0 0 -0 -0 -0 0 0 0 0 0 0 0 0 0 0 0 0 0 0 0 0
-0 -0 -0 -0 -0 -0 -0 -0 -0 -0 -0 -0 -0 0 -0 -0 -0 -0 -0 0 0 -0 0 0 -0 -0 0 0 -0 -0 0 0 0 0 0 0 -0 0 -0 0 0 0 0
-0 -0 -0 -0 -0 -0 -0 -0 -0 -0 -0 -0 -0 -0 -0 -0 -0 -0 -0 -0 0 0 0 0 -0 -0 0 0 -0 -0 0 0 0 0 0 0 -0 -0 0 0 -0 -0 0
0 -0 -0 -0 -0 -0 -0 -0 -0 -0 -0 -0 -0 -0 -0 -0 -0 -0 0 0 0 -0 0 0 -0 0 0 0 0 0 0 0 0 0 0 -0 0 0 0 -0 -0 0 -0
0 -0 -0 -0 -0 -0 -0 -0 -0 -0 -0 -0 -0 -0 -0 -0 -0 -0 0 -0 -0 -0 -0 0 0 0 0 0 0 0 0 -0 0 -0 0 0 -0 0 -0 0 0 0 0
0 -0 -0 -0 -0 -0 -0 -0 -0 -0 -0 -0 -0 -0 0 0 0 -0 0 0 0 0 0 0 0 0 0 0 0 0 0 0 0 0 0 -0 -0 0 0 -0 0 0 0
0 0 -0 -0 -0 -0 -0 -0 -0 -0 -0 -0 -0 -0 0 0 0 0 0 0 0 0 0 0 0 -0 0 0 0 0 0 0 0 -0 0 0 0 -0 -0 -0 -0 -0 0
0 0 0 -0 -0 -0 -0 -0 -0 -0 -0 -0 -0 -0 -0 0 0 0 0 0 0 0 0 0 0 -0 -0 0 0 0 0 0 -0 -0 0 -0 0 0 0 0 -0 0 0
0 0 0 -0 -0 -0 -0 -0 -0 -0 -0 -0 -0 -0 -0 -0 -0 0 0 0 0 0 0 0 -0 0 -0 -0 0 0 0 0 0 0 0 0 0 0 0 -0 -0 -0 -0
0 0 0 -0 -0 -0 -0 -0 -0 -0 -0 -0 -0 -0 -0 -0 -0 0 0 0 0 0 0 0 0 0 0 0 0 0 0 0 0 0 0 0 0 0 -0 -0 -0 0 0
0 0 0 -0 -0 -0 -0 -0 -0 -0 -0 -0 -0 -0 -0 -0 -0 0 0 0 0 0 0 0 0 0 0 0 0 0 0 0 0 0 0 0 0 -0 -0 -0 0 0 0
0 0 0 0 -0 -0 -0 -0 -0 -0 -0 -0 -0 -0 -0 -0 0 0 0 0 0 -0 -0 0 0 -0 -0 -0 0 -0 -0 -0 -0 0 0 0 0 0 0 0 0 0 0
Wind_Speed_500mb
71 64 55 34 40 33 34 39 47 49 56 49 48 45 39 30 26 25 25 28 26 33 35 39 40 37 37 32 32 32 35 34 33 24 27 29 31 29 29 30 28 29 29
77 62 41 24 22 25 30 34 38 48 51 47 44 38 31 24 22 21 23 23 26 29 34 37 35 37 36 34 30 36 34 35 33 28 21 16 26 36 33 33 31 30 28
71 57 44 21 16 23 29 34 41 47 48 40 39 32 26 21 21 21 21 23 22 28 30 30 32 32 31 32 28 34 36 35 33 36 22 15 17 30 34 37 28 32 37
56 54 33 21 23 25 29 35 41 45 44 46 35 32 23 18 17 16 16 18 21 22 29 28 22 21 21 24 27 27 26 30 30 30 39 24 16 26 24 32 34 34 34
58 52 31 26 26 30 35 40 44 45 43 39 29 26 20 15 12 14 17 22 23 23 19 13 14 14 14 17 18 23 25 23 25 27 27 25 21 25 28 32 27 26 25
45 20 27 31 33 35 40 44 47 42 37 33 27 23 18 12 11 11 14 22 25 21 15 11 8 12 9 10 10 11 10 16 19 21 20 21 15 18 12 20 27 25 20
23 32 37 39 42 45 45 46 44 40 35 29 23 18 13 10 9 10 14 13 16 11 11 12 12 8 10 4 5 10 14 13 12 14 19 16 17 12 20 27 31 31 29
29 36 40 44 48 48 48 44 41 38 33 27 22 17 13 6 5 8 7 11 6 9 11 8 4 3 5 11 15 11 9 10 8 8 9 13 15 10 20 26 40 41 29
35 42 46 48 49 48 46 43 39 35 30 26 22 17 12 10 9 10 5 6 10 7 9 6 6 6 3 7 9 8 9 8 5 6 8 11 10 12 17 27 40 37 27
42 47 48 49 47 45 43 40 35 32 28 25 21 16 14 12 7 5 5 11 13 11 8 4 4 6 4 3 6 7 8 4 3 4 3 4 3 6 10 32 36 30 46
47 49 50 49 46 44 40 38 33 30 27 24 19 18 14 12 8 8 10 9 13 12 9 5 4 5 5 2 5 9 9 7 14 13 7 8 6 21 18 23 21 33 32
49 50 51 50 48 44 39 37 31 28 27 23 19 16 13 12 10 10 14 10 12 11 9 6 4 3 2 1 3 6 11 16 16 9 11 10 12 14 10 20 21 22 28
50 50 50 50 47 42 39 35 31 29 26 23 19 15 13 10 11 14 13 15 14 11 10 6 4 5 6 5 2 7 14 13 15 15 10 11 16 13 25 25 29 34 68
49 49 48 47 45 42 40 34 32 29 27 24 17 16 9 11 13 14 17 20 15 13 12 9 6 9 11 10 9 13 11 13 16 14 17 20 22 22 31 37 38 70 84
46 47 48 47 45 42 39 34 33 30 28 23 20 13 12 14 15 15 15 21 21 19 13 16 13 13 13 10 20 12 10 12 20 27 21 27 31 35 36 44 68 84 85
45 46 47 46 45 43 40 37 34 32 29 25 22 19 18 19 16 16 17 21 21 22 15 19 13 16 12 13 19 18 14 17 26 29 33 36 38 36 33 48 69 85 89
39 45 48 48 46 44 41 39 36 33 31 28 23 23 22 21 21 19 18 16 18 20 22 18 19 15 17 12 13 20 15 16 27 33 39 37 34 32 33 47 60 67 69
37 39 43 44 45 44 42 38 37 36 33 30 27 25 25 23 23 20 19 18 21 23 24 21 18 17 15 9 12 20 13 17 26 36 35 36 35 34 44 48 52 60 49
36 39 42 43 42 45 46 43 40 38 35 32 30 28 27 23 22 19 19 18 12 14 17 22 24 18 16 11 12 24 19 24 31 32 31 35 35 42 38 44 49 51 51
38 40 44 46 45 45 46 46 43 41 38 35 32 30 27 23 21 18 18 16 12 12 13 18 21 21 16 16 21 29 21 32 36 36 32 26 38 37 46 43 49 44 47
25 37 44 48 48 48 47 46 45 44 40 36 35 32 29 26 23 19 13 18 17 10 15 22 25 21 18 23 29 30 25 38 40 37 40 49 45 47 47 44 40 55 55
22 39 46 49 50 50 50 46 46 44 42 40 39 35 33 29 23 20 19 16 19 20 22 22 23 21 22 21 24 31 33 40 38 40 45 54 53 45 36 34 39 51 55
22 40 46 50 51 53 52 50 46 47 46 43 42 40 34 31 26 23 23 21 20 19 20 22 19 23 15 15 21 34 31 41 43 50 45 40 36 36 35 40 45 52 40
20 38 48 54 55 55 53 49 48 48 48 47 45 42 38 35 30 26 23 21 22 20 20 25 22 21 20 21 32 45 46 49 47 42 40 38 39 35 39 45 48 34 35
18 35 48 52 54 55 54 52 51 52 51 49 47 45 41 40 34 30 25 23 23 22 20 20 21 24 24 26 33 40 46 39 39 43 43 41 35 30 39 44 32 30 34
17 30 45 52 55 57 57 56 55 56 55 54 50 47 44 44 38 36 33 33 29 34 27 27 25 25 23 27 36 40 37 34 37 33 32 29 29 31 32 32 31 28 34
Wind_Direction_500mb
277 280 279 263 247 250 225 209 204 199 194 192 193 197 204 204 212 222 234 243 255 262 266 263 267 258 253 246 248 231 239 239 238 245 240 238 209 219 215 214 221 219 217
275 272 268 236 251 224 210 198 189 187 184 188 187 195 198 209 218 229 237 247 264 265 258 260 266 260 258 247 242 232 240 241 238 230 222 224 225 215 214 219 218 216 214
266 266 254 218 208 201 191 181 178 178 174 179 178 181 187 194 215 233 247 263 266 260 267 271 268 264 257 246 239 233 240 240 238 230 199 200 211 197 209 213 212 221 218
258 251 235 186 185 186 174 169 169 167 165 171 178 178 186 208 225 223 248 238 262 261 271 269 266 262 249 242 244 245 239 235 232 224 218 228 217 185 183 202 205 215 218
251 245 184 184 178 173 166 162 160 158 168 159 173 181 190 220 236 239 245 268 257 259 261 259 244 244 242 250 242 230 241 224 220 208 211 222 229 232 218 178 197 203 203
231 196 160 167 166 162 159 155 156 158 160 164 171 160 189 199 220 236 256 265 274 270 240 231 251 247 248 252 233 210 215 206 212 211 214 211 204 221 211 175 175 182 183
150 168 165 160 157 157 152 154 155 156 160 163 164 167 173 194 220 245 285 269 271 246 178 202 221 222 231 215 183 208 201 229 217 217 219 229 212 223 209 187 171 162 147
167 169 161 157 156 153 152 154 155 156 161 162 163 164 184 185 243 262 240 271 246 170 172 191 184 197 194 199 217 202 222 218 243 228 222 208 225 224 212 188 169 157 147
164 160 155 155 154 155 155 155 156 159 162 164 162 172 183 181 210 227 119 259 157 163 159 157 150 139 142 203 220 214 211 226 250 271 219 218 235 266 204 186 174 163 144
160 155 153 154 155 155 155 155 157 160 162 161 169 176 182 184 184 170 142 187 162 158 172 136 132 128 104 165 186 173 193 217 232 226 280 230 300 137 173 167 166 164 149
160 156 154 155 156 157 156 156 159 159 161 168 172 179 185 181 186 164 149 177 156 161 158 160 64 93 76 139 158 176 182 190 232 254 281 274 178 140 116 156 159 160 156
159 158 157 157 160 157 159 160 160 161 167 169 175 183 191 183 169 160 165 160 140 166 169 169 105 171 310 26 196 197 166 194 189 215 237 227 166 154 161 162 154 172 170
160 159 160 163 160 160 164 164 161 165 170 169 175 183 197 179 156 161 158 157 161 165 163 158 162 286 91 76 42 187 173 198 206 196 187 182 156 144 149 156 152 153 138
162 162 166 165 163 165 167 165 164 168 168 171 173 166 178 155 150 158 154 156 159 165 158 151 177 109 91 96 91 111 121 140 147 138 123 125 155 145 147 148 154 149 147
168 168 170 168 165 168 166 166 167 168 168 168 163 164 142 137 151 154 154 152 162 156 156 146 119 121 100 122 103 85 101 115 126 123 112 120 124 132 129 138 148 151 143
176 173 173 171 169 170 168 169 169 168 166 165 158 148 144 146 151 145 146 148 153 151 154 146 137 119 137 103 111 109 103 111 128 119 117 119 132 128 132 149 149 155 154
181 180 178 175 173 172 170 171 170 167 165 162 154 149 149 150 147 148 150 152 154 150 155 152 150 157 146 108 96 112 97 119 129 131 121 119 128 133 136 145 162 161 158
182 182 183 178 174 171 171 170 171 168 166 164 159 155 158 157 156 158 159 165 170 163 166 165 163 159 162 151 118 124 106 121 131 137 127 130 126 127 142 148 156 165 165
182 185 183 179 177 174 171 171 171 169 169 167 164 161 162 161 160 166 170 172 181 164 168 172 172 155 167 165 150 130 132 127 118 129 140 132 136 129 145 150 149 157 165
181 181 181 179 177 178 176 172 173 172 174 170 167 167 169 169 164 157 158 163 155 136 156 156 156 159 160 147 135 134 143 144 132 123 120 144 147 139 136 142 139 138 156
186 182 180 180 179 179 178 178 176 177 175 171 169 166 164 162 159 155 156 150 143 140 123 134 138 137 135 128 142 141 147 135 135 121 120 122 123 132 127 129 136 140 138
207 186 181 181 181 182 181 183 181 177 174 173 172 170 166 166 167 160 148 148 147 127 119 121 123 129 127 121 138 154 142 133 130 132 134 131 129 135 140 135 141 141 141
212 191 186 183 184 185 185 185 185 179 176 175 176 176 174 173 172 167 155 156 153 146 136 136 138 139 137 136 138 149 156 155 148 146 144 144 142 146 148 149 146 130 144
212 196 190 187 186 187 188 187 186 182 179 178 178 179 179 177 176 175 168 167 163 164 167 154 152 141 144 137 142 143 141 143 147 146 147 145 141 138 147 148 147 141 159
221 203 195 190 190 189 189 187 187 184 183 182 181 182 184 182 182 179 181 179 176 176 173 168 162 158 154 163 151 148 154 150 155 160 158 156 149 152 157 158 158 167 173
227 206 200 195 193 192 191 188 189 187 185 185 186 186 186 189 189 186 190 191 189 191 187 174 173 177 184 185 171 158 167 170 177 163 167 172 174 175 177 180 181 182 182
Wind_Speed_850mb
71 64 55 34 40 33 34 39 47 49 56 49 48 45 39 30 26 25 25 28 26 33 35 39 40 37 37 32 32 32 35 34 33 24 27 29 31 29 29 30 28 29 29
77 62 41 24 22 25 30 34 38 48 51 47 44 38 31 24 22 21 23 23 26 29 34 37 35 37 36 34 30 36 34 35 33 28 21 16 26 36 33 33 31 30 28
71 57 44 21 16 23 29 34 41 47 48 40 39 32 26 21 21 21 21 23 22 28 30 30 32 32 31 32 28 34 36 35 33 36 22 15 17 30 34 37 28 32 37
56 54 33 21 23 25 29 35 41 45 44 46 35 32 23 18 17 16 16 18 21 22 29 28 22 21 21 24 27 27 26 30 30 30 39 24 16 26 24 32 34 34 34
58 52 31 26 26 30 35 40 44 45 43 39 29 26 20 15 12 14 17 22 23 23 19 13 14 14 14 17 18 23 25 23 25 27 27 25 21 25 28 32 27 26 25
45 20 27 31 33 35 40 44 47 42 37 33 27 23 18 12 11 11 14 22 25 21 15 11 8 12 9 10 10 11 10 16 19 21 20 21 15 18 12 20 27 25 20
23 32 37 39 42 45 45 46 44 40 35 29 23 18 13 10 9 10 14 13 16 11 11 12 12 8 10 4 5 10 14 13 12 14 19 16 17 12 20 27 31 31 29
29 36 40 44 48 48 48 44 41 38 33 27 22 17 13 6 5 8 7 11 6 9 11 8 4 3 5 11 15 11 9 10 8 8 9 13 15 10 20 26 40 41 29
35 42 46 48 49 48 46 43 39 35 30 26 22 17 12 10 9 10 5 6 10 7 9 6 6 6 3 7 9 8 9 8 5 6 8 11 10 12 17 27 40 37 27
42 47 48 49 47 45 43 40 35 32 28 25 21 16 14 12 7 5 5 11 13 11 8 4 4 6 4 3 6 7 8 4 3 4 3 4 3 6 10 32 36 30 46
47 49 50 49 46 44 40 38 33 30 27 24 19 18 14 12 8 8 10 9 13 12 9 5 4 5 5 2 5 9 9 7 14 13 7 8 6 21 18 23 21 33 32
49 50 51 50 48 44 39 37 31 28 27 23 19 16 13 12 10 10 14 10 12 11 9 6 4 3 2 1 3 6 11 16 16 9 11 10 12 14 10 20 21 22 28
50 50 50 50 47 42 39 35 31 29 26 23 19 15 13 10 11 14 13 15 14 11 10 6 4 5 6 5 2 7 14 13 15 15 10 11 16 13 25 25 29 34 68
49 49 48 47 45 42 40 34 32 29 27 24 17 16 9 11 13 14 17 20 15 13 12 9 6 9 11 10 9 13 11 13 16 14 17 20 22 22 31 37 38 70 84
46 47 48 47 45 42 39 34 33 30 28 23 20 13 12 14 15 15 15 21 21 19 13 16 13 13 13 10 20 12 10 12 20 27 21 27 31 35 36 44 68 84 85
45 46 47 46 45 43 40 37 34 32 29 25 22 19 18 19 16 16 17 21 21 22 15 19 13 16 12 13 19 18 14 17 26 29 33 36 38 36 33 48 69 85 89
39 45 48 48 46 44 41 39 36 33 31 28 23 23 22 21 21 19 18 16 18 20 22 18 19 15 17 12 13 20 15 16 27 33 39 37 34 32 33 47 60 67 69
37 39 43 44 45 44 42 38 37 36 33 30 27 25 25 23 23 20 19 18 21 23 24 21 18 17 15 9 12 20 13 17 26 36 35 36 35 34 44 48 52 60 49
36 39 42 43 42 45 46 43 40 38 35 32 30 28 27 23 22 19 19 18 12 14 17 22 24 18 16 11 12 24 19 24 31 32 31 35 35 42 38 44 49 51 51
38 40 44 46 45 45 46 46 43 41 38 35 32 30 27 23 21 18 18 16 12 12 13 18 21 21 16 16 21 29 21 32 36 36 32 26 38 37 46 43 49 44 47
25 37 44 48 48 48 47 46 45 44 40 36 35 32 29 26 23 19 13 18 17 10 15 22 25 21 18 23 29 30 25 38 40 37 40 49 45 47 47 44 40 55 55
22 39 46 49 50 50 50 46 46 44 42 40 39 35 33 29 23 20 19 16 19 20 22 22 23 21 22 21 24 31 33 40 38 40 45 54 53 45 36 34 39 51 55
22 40 46 50 51 53 52 50 46 47 46 43 42 40 34 31 26 23 23 21 20 19 20 22 19 23 15 15 21 34 31 41 43 50 45 40 36 36 35 40 45 52 40
20 38 48 54 55 55 53 49 48 48 48 47 45 42 38 35 30 26 23 21 22 20 20 25 22 21 20 21 32 45 46 49 47 42 40 38 39 35 39 45 48 34 35
18 35 48 52 54 55 54 52 51 52 51 49 47 45 41 40 34 30 25 23 23 22 20 20 21 24 24 26 33 40 46 39 39 43 43 41 35 30 39 44 32 30 34
17 30 45 52 55 57 57 56 55 56 55 54 50 47 44 44 38 36 33 33 29 34 27 27 25 25 23 27 36 40 37 34 37 33 32 29 29 31 32 32 31 28 34
Wind_Direction_850mb
277 280 279 263 247 250 225 209 204 199 194 192 193 197 204 204 212 222 234 243 255 262 266 263 267 258 253 246 248 231 239 239 238 245 240 238 209 219 215 214 221 219 217
275 272 268 236 251 224 210 198 189 187 184 188 187 195 198 209 218 229 237 247 264 265 258 260 266 260 258 247 242 232 240 241 238 230 222 224 225 215 214 219 218 216 214
266 266 254 218 208 201 191 181 178 178 174 179 178 181 187 194 215 233 247 263 266 260 267 271 268 264 257 246 239 233 240 240 238 230 199 200 211 197 209 213 212 221 218
258 251 235 186 185 186 174 169 169 167 165 171 178 178 186 208 225 223 248 238 262 261 271 269 266 262 249 242 244 245 239 235 232 224 218 228 217 185 183 202 205 215 218
251 245 184 184 178 173 166 162 160 158 168 159 173 181 190 220 236 239 245 268 257 259 261 259 244 244 242 250 242 230 241 224 220 208 211 222 229 232 218 178 197 203 203
231 196 160 167 166 162 159 155 156 158 160 164 171 160 189 199 220 236 256 265 274 270 240 231 251 247 248 252 233 210 215 206 212 211 214 211 204 221 211 175 175 182 183
150 168 165 160 157 157 152 154 155 156 160 163 164 167 173 194 220 245 285 269 271 246 178 202 221 222 231 215 183 208 201 229 217 217 219 229 212 223 209 187 171 162 147
167 169 161 157 156 153 152 154 155 156 161 162 163 164 184 185 243 262 240 271 246 170 172 191 184 197 194 199 217 202 222 218 243 228 222 208 225 224 212 188 169 157 147
164 160 155 155 154 155 155 155 156 159 162 164 162 172 183 181 210 227 119 259 157 163 159 157 150 139 142 203 220 214 211 226 250 271 219 218 235 266 204 186 174 163 144
160 155 153 154 155 155 155 155 157 160 162 161 169 176 182 184 184 170 142 187 162 158 172 136 132 128 104 165 186 173 193 217 232 226 280 230 300 137 173 167 166 164 149
160 156 154 155 156 157 156 156 159 159 161 168 172 179 185 181 186 164 149 177 156 161 158 160 64 93 76 139 158 176 182 190 232 254 281 274 178 140 116 156 159 160 156
159 158 157 157 160 157 159 160 160 161 167 169 175 183 191 183 169 160 165 160 140 166 169 169 105 171 310 26 196 197 166 194 189 215 237 227 166 154 161 162 154 172 170
160 159 160 163 160 160 164 164 161 165 170 169 175 183 197 179 156 161 158 157 161 165 163 158 162 286 91 76 42 187 173 198 206 196 187 182 156 144 149 156 152 153 138
162 162 166 165 163 165 167 165 164 168 168 171 173 166 178 155 150 158 154 156 159 165 158 151 177 109 91 96 91 111 121 140 147 138 123 125 155 145 147 148 154 149 147
168 168 170 168 165 168 166 166 167 168 168 168 163 164 142 137 151 154 154 152 162 156 156 146 119 121 100 122 103 85 101 115 126 123 112 120 124 132 129 138 148 151 143
176 173 173 171 169 170 168 169 169 168 166 165 158 148 144 146 151 145 146 148 153 151 154 146 137 119 137 103 111 109 103 111 128 119 117 119 132 128 132 149 149 155 154
181 180 178 175 173 172 170 171 170 167 165 162 154 149 149 150 147 148 150 152 154 150 155 152 150 157 146 108 96 112 97 119 129 131 121 119 128 133 136 145 162 161 158
182 182 183 178 174 171 171 170 171 168 166 164 159 155 158 157 156 158 159 165 170 163 166 165 163 159 162 151 118 124 106 121 131 137 127 130 126 127 142 148 156 165 165
182 185 183 179 177 174 171 171 171 169 169 167 164 161 162 161 160 166 170 172 181 164 168 172 172 155 167 165 150 130 132 127 118 129 140 132 136 129 145 150 149 157 165
181 181 181 179 177 178 176 172 173 172 174 170 167 167 169 169 164 157 158 163 155 136 156 156 156 159 160 147 135 134 143 144 132 123 120 144 147 139 136 142 139 138 156
186 182 180 180 179 179 178 178 176 177 175 171 169 166 164 162 159 155 156 150 143 140 123 134 138 137 135 128 142 141 147 135 135 121 120 122 123 132 127 129 136 140 138
207 186 181 181 181 182 181 183 181 177 174 173 172 170 166 166 167 160 148 148 147 127 119 121 123 129 127 121 138 154 142 133 130 132 134 131 129 135 140 135 141 141 141
212 191 186 183 184 185 185 185 185 179 176 175 176 176 174 173 172 167 155 156 153 146 136 136 138 139 137 136 138 149 156 155 148 146 144 144 142 146 148 149 146 130 144
212 196 190 187 186 187 188 187 186 182 179 178 178 179 179 177 176 175 168 167 163 164 167 154 152 141 144 137 142 143 141 143 147 146 147 145 141 138 147 148 147 141 159
221 203 195 190 190 189 189 187 187 184 183 182 181 182 184 182 182 179 181 179 176 176 173 168 162 158 154 163 151 148 154 150 155 160 158 156 149 152 157 158 158 167 173
227 206 200 195 193 192 191 188 189 187 185 185 186 186 186 189 189 186 190 191 189 191 187 174 173 177 184 185 171 158 167 170 177 163 167 172 174 175 177 180 181 182 182